Douglas, WY

4:18 AM MST on November 21, 2017 (GMT -0700)
Converse County

Weather History for KDGW - June, 2013

Change the Weather History Date:

Thursday, June 13, 2013

  Actual Average Record
Temperature  
Mean Temperature 67 °F 63 °F  
Max Temperature 80 °F 79 °F 99 °F (2006)
Min Temperature 53 °F 47 °F 32 °F (2008)
Cooling Degree Days 2 2  
Month to date cooling degree days 15 17  
Year to date cooling degree days 31 23  
Since 1 June cooling degree days 15 17  
Growing Degree Days 16 (Base 50)    
Moisture  
Dew Point 52 °F    
Average Humidity 61    
Maximum Humidity 83    
Minimum Humidity 39    
Precipitation  
Precipitation 0.05 in 0.06 in 0.45 in (2005)
Month to date precipitation 0.37 0.93  
Year to date precipitation 4.99 6.57  
Sea Level Pressure  
Sea Level Pressure 29.87 in    
Wind  
Wind Speed 17 mph (SE)    
Max Wind Speed 31 mph    
Max Gust Speed 40 mph    
Visibility 10 miles    
Events Rain , Thunderstorm    
T = Trace of Precipitation, MM = Missing Value Source: NWS Daily Summary

Daily Weather History Graph

Daily Weather History Graph

Search for Another Location

Airport or City:

Trip Planner

Search our weather history database for the weather conditions in past years. The results will help you decide how hot, cold, wet, or windy it might be!

Date:

Astronomy

Jun. 13, 2013 Rise Set
Actual Time 5:22 AM MDT 8:41 PM MDT
Civil Twilight 4:47 AM MDT 9:16 PM MDT
Nautical Twilight 4:02 AM MDT 10:01 PM MDT
Astronomical Twilight 3:06 AM MDT 10:57 PM MDT
Moon 10:07 AM MDT (6/13) 11:42 PM MDT (6/13)
Length of Visible Light 16h 28m
Length of Day
15h 18m
Waxing Crescent, 22% of the Moon is Illuminated
Jun 13
Waxing Crescent
Jun 16
First Quarter
Jun 23
Full
Jun 29
Last Quarter
Jul 8
New

Hourly Weather History & Observations

Time (MDT) Temp. Dew Point Humidity Pressure Visibility Wind Dir Wind Speed Gust Speed Precip Events Conditions
12:53 AM 57.9 °F 48.9 °F 72% 29.96 in 10.0 mi East 20.7 mph 26.5 mph N/A   Clear
1:53 AM 57.0 °F 48.9 °F 74% 29.95 in 10.0 mi SE 17.3 mph 27.6 mph N/A   Clear
2:53 AM 55.0 °F 48.9 °F 80% 29.93 in 10.0 mi SE 13.8 mph - N/A   Clear
3:53 AM 55.0 °F 48.9 °F 80% 29.91 in 10.0 mi SE 21.9 mph 29.9 mph N/A   Clear
4:53 AM 54.0 °F 48.9 °F 83% 29.92 in 10.0 mi SE 21.9 mph 27.6 mph N/A   Clear
5:53 AM 54.0 °F 48.0 °F 80% 29.94 in 10.0 mi SE 24.2 mph 34.5 mph N/A   Clear
6:53 AM 55.0 °F 48.9 °F 80% 29.92 in 10.0 mi SE 24.2 mph 35.7 mph N/A   Clear
7:53 AM 57.9 °F 48.9 °F 72% 29.95 in 10.0 mi SSE 23.0 mph 31.1 mph N/A   Clear
8:53 AM 61.0 °F 50.0 °F 67% 29.94 in 10.0 mi SSE 25.3 mph 33.4 mph N/A   Clear
9:53 AM 64.9 °F 51.1 °F 61% 29.91 in 10.0 mi SE 19.6 mph - N/A   Clear
10:53 AM 69.1 °F 51.1 °F 53% 29.89 in 10.0 mi SE 18.4 mph - N/A   Clear
11:53 AM 72.0 °F 52.0 °F 49% 29.87 in 10.0 mi SE 19.6 mph 25.3 mph N/A   Clear
12:53 PM 75.9 °F 53.1 °F 45% 29.86 in 10.0 mi SE 20.7 mph 26.5 mph N/A   Clear
1:53 PM 78.1 °F 52.0 °F 40% 29.82 in 10.0 mi SE 21.9 mph 31.1 mph N/A   Clear
2:53 PM 79.0 °F 52.0 °F 39% 29.80 in 10.0 mi SE 23.0 mph 29.9 mph N/A   Clear
3:53 PM 72.0 °F 54.0 °F 53% 29.86 in 10.0 mi SSE 17.3 mph - 0.00 in Rain , Thunderstorm Light Rain
4:18 PM 73.4 °F 57.2 °F 57% 29.97 in 10.0 mi SSE 3.5 mph - 0.01 in   Scattered Clouds
4:53 PM 72.0 °F 55.0 °F 55% 29.83 in 10.0 mi SE 10.4 mph - 0.01 in   Clear
5:12 PM 71.6 °F 55.4 °F 57% 30.01 in 10.0 mi SSE 8.1 mph - N/A Thunderstorm Thunderstorm
5:39 PM 71.6 °F 57.2 °F 60% 29.94 in 10.0 mi NE 10.4 mph - 0.04 in   Scattered Clouds
5:53 PM 72.0 °F 59.0 °F 64% 29.81 in 10.0 mi ENE 5.8 mph - 0.04 in   Clear
6:53 PM 73.9 °F 57.9 °F 57% 29.79 in 10.0 mi East 3.5 mph - N/A   Clear
7:53 PM 73.0 °F 54.0 °F 51% 29.76 in 10.0 mi ESE 11.5 mph - N/A   Clear
8:53 PM 68.0 °F 54.0 °F 61% 29.75 in 10.0 mi SE 11.5 mph - N/A   Partly Cloudy
9:53 PM 66.9 °F 54.0 °F 63% 29.73 in 10.0 mi SSE 9.2 mph - N/A   Clear
10:53 PM 63.0 °F 54.0 °F 72% 29.72 in 10.0 mi SE 9.2 mph - N/A   Clear
11:53 PM 66.0 °F 53.1 °F 63% 29.70 in 10.0 mi SSE 12.7 mph - N/A   Clear